Other Surface Observations
Issued by NWS Charleston, SC

Home | Current Version | Previous Version | Text Only | Print | Product List | Glossary On
Versions: 1 2 3 4 5 6 7 8 9 10 11 12 13 14 15 16 17 18 19 20 21 22 23 24 25 26 27 28 29 30 31 32 33 34 35 36 37 38 39 40 41 42 43 44 45 46 47 48 49 50
000
SXUS52 KCHS 240627
OSOCHS

MARINE OBSERVATIONS
NATIONAL WEATHER SERVICE CHARLESTON SC
200 AM EDT MON APR 24 2017

...DOWNTOWN CHARLESTON AND HARBOR...

CITY           SKY/WX    TMP DP  RH WIND       PRES   REMARKS
WATERFRONT PRK   N/A     74  71  90 S15       29.73F

...LAKE MOULTRIE...

CITY           SKY/WX    TMP DP  RH WIND       PRES   REMARKS
PINOPOLIS        N/A     72  70  94 SE5       29.67F

...LAKE AND SUPPLEMENTAL COASTAL OBSERVATIONS...

STATION/POSITION TIME  TEMP    WIND        PRES    WAVE   SWELL
                       AIR SEA DIR/SP/G            HT/PER HT/PER/DIR
                 (UTC) (F)     (DEG/KT/KT) (MB)    (FT/S) (FT/S/D)
FORT PULASKI     0600   73 75  190/  8/ 16 1006.8
SAPELO ISLAND    0600   73     160/ 15     1007.0
WINYAH BAY       0530   71      80/  5     1008.0F
LAKE MURRAY      0620   56     350/  3/ 10 1007.8
ACE BASIN NERRS  0545   74     180/  3     1007.0S


...C-MAN AND BUOY OBSERVATIONS...

STATION/POSITION TIME  TEMP    WIND        PRES    WAVE   SWELL
                       AIR SEA DIR/SP/G            HT/PER HT/PER/DIR
                 (UTC) (F)     (DEG/KT/KT) (MB)    (FT/S) (FT/S/D)
BUOY 41004       0610   75 74  160/ 17/ 23 1007.4
BUOY 41008       0550   71 72  180/ 19/ 23 1007.0F   4/ 5   2/ 70/11
FOLLY BEACH CMAN 0600   74     160/ 18/ 20 1007.6F
CAPERS NS BUOY   0608   74 73  170/ 14/ 19 1007.1F
FRIPP NS BUOY    0608   73 73  200/ 14/ 17 1006.3F
5E ST. MARYS GA  0600      73                N/A     4/ 5   2/110/11


STATION/POSITION TIME  TEMP    WIND        PRES    WAVE   SWELL
                       AIR SEA DIR/SP/G            HT/PER HT/PER/DIR
                 (UTC) (F)     (DEG/KT/KT) (MB)    (FT/S) (FT/S/D)
FRYING PAN BUOY  0610   75 74  160/ 16/ 19 1008.9
BUOY 41025       0550   76 79  170/ 10/ 14 1012.4F   7/11   7/ 70/11
CAPE LOOKOUT NC  0600   65      20/ 13/ 16 1010.9F
BUOY 41002       0550   73 75  140/ 19/ 23 1012.3F   5/ 6   2/ 30/11
BUOY 41010       0610   74 79  110/ 23/ 29 1005.5
ST AUGUSTINE FL  0600   71 76  200/  8/ 11 1008.4F

$$




USA.gov is the U.S. government's official web portal to all federal, state and local government web resources and services.